{"data":{"norad_id":69831,"epoch":"2026-09-19T19:42:56.990880Z","epoch_age_seconds":76408,"freshness":"FRESH","line1":"1 69831U 26154N   26262.82149295 -.00002697  00000+0 -68730-4 0  9996","line2":"2 69831  53.1581 334.9279 0000978 111.7733 248.3373 15.34394254 13134","mean_motion":15.34394254,"eccentricity":9.78e-5,"inclination_deg":53.1581,"raan_deg":334.9279,"arg_perigee_deg":111.7733,"mean_anomaly_deg":248.3373,"bstar":-6.873e-5,"rev_number":1313,"period_min":93.848109522444,"perigee_km":462.05128273756,"apogee_km":463.38935442907,"semimajor_km":6840.8573185833,"source":"CELESTRAK","updated_at":"2026-09-20T09:00:44.295084Z"}}